Cal Pinellet - temp/vent/humi/press dades any
23/02/2024 3:32 TEMP RatxaVent HUMITAT PRESSIÓ
2024 min MAX min MAX min MAX min MAX
Gener -5.6 22.1 0 56 12 79 1001 1043
Febrer -0.9 22.3 0 55 17 79 987 1040
Març 0.0 0.0 0 0 0 0 0 0
Abril 0.0 0.0 0 0 0 0 0 0
Maig 0.0 0.0 0 0 0 0 0 0
Juny 0.0 0.0 0 0 0 0 0 0
Juliol 0.0 0.0 0 0 0 0 0 0
Agost 0.0 0.0 0 0 0 0 0 0
Setem. 0.0 0.0 0 0 0 0 0 0
Octubre 0.0 0.0 0 0 0 0 0 0
Novemb. 0.0 0.0 0 0 0 0 0 0
Desemb. 0.0 0.0 0 0 0 0 0 0
data.valor.extrem 09/01/24 04/02/24 18/01/24 10/02/24 23/01/24
mín màx màx mín màx
valors extrems -5.6 22.3 56.2 987 1043
  TEMP   RatxaVent HUMITAT PRESSIÓ Tª mitja
data min MAX min MAX min MAX min MAX mitja
22/02/24 4.6 17.2 0 45.0 34 61 1007 1025 11.0
21/02/24 2.6 16.3 0 19.4 28 67 1024 1033 8.9
20/02/24 1.6 16.9 0 19.4 33 68 1029 1034 8.5
19/02/24 5.6 18.6 0 20.9 30 74 1032 1036 10.8
18/02/24 1.3 14.7 0 24.1 48 77 1036 1039 8.0
17/02/24 4.9 12.9 0 28.8 56 77 1028 1037 9.2
16/02/24 5.6 12.6 0 19.4 48 70 1020 1028 9.0
15/02/24 6.2 18.5 0 17.6 17 64 1021 1027 11.3
14/02/24 1.0 20.2 0 16.2 22 71 1027 1031 9.6
13/02/24 1.1 16.1 0 22.7 34 67 1020 1029 7.8
12/02/24 -0.3 15.3 0 51.5 40 67 1010 1021 7.5
11/02/24 3.1 13.1 0 40.3 31 60 1003 1013 6.9
10/02/24 4.7 14.6 0 54.7 21 78 987 1003 9.3
09/02/24 7.2 13.1 0 22.7 51 76 991 1008 9.2
08/02/24 0.4 15.4 0 25.9 44 75 1007 1022 7.5
07/02/24 -0.7 13.3 0 22.7 42 79 1021 1026 5.7
06/02/24 1.3 15.1 0 16.2 34 67 1026 1031 7.0
05/02/24 0.7 20.1 0 22.7 25 64 1030 1035 8.4
04/02/24 0.2 22.3 0 13.0 18 73 1033 1036 8.5
03/02/24 -0.4 17.3 0 17.6 37 77 1035 1038 6.8
02/02/24 0.6 10.8 0 19.4 64 77 1036 1039 5.3
01/02/24 -0.9 12.8 0 19.4 58 77 1036 1040 5.6
31/01/24 0.2 13.8 0 13.0 51 79 1038 1041 5.1
30/01/24 2.9 14.7 0 13.0 51 75 1036 1039 8.7
29/01/24 1.6 11.9 0 16.2 63 79 1036 1038 6.8
28/01/24 0.9 16.7 0 19.4 44 73 1033 1037 7.7
27/01/24 2.0 20.2 0 20.9 30 68 1033 1037 9.1
26/01/24 1.7 22.1 0 14.4 29 76 1035 1037 9.5
25/01/24 1.6 19.3 0 14.4 39 78 1034 1040 8.3
24/01/24 1.8 19.2 0 14.4 42 77 1039 1043 8.3
23/01/24 -0.8 14.7 0 14.4 49 77 1039 1043 5.3
22/01/24 -2.7 9.8 0 17.6 55 75 1036 1040 2.6
21/01/24 -3.2 11.4 0 13.0 48 75 1036 1040 1.8
20/01/24 -0.8 9.6 0 20.9 45 77 1018 1036 4.5
19/01/24 5.8 8.2 0 24.1 60 77 1012 1018 6.7
18/01/24 6.8 16.1 0 56.2 42 71 1006 1012 12.4
17/01/24 8.3 13.9 0 35.3 59 77 1001 1012 10.6
16/01/24 4.0 14.4 0 16.2 60 77 1012 1016 8.3
15/01/24 0.3 12.4 0 24.1 64 78 1012 1017 5.7
14/01/24 -0.8 10.3 0 25.9 51 75 1017 1025 3.6
13/01/24 -1.3 9.4 0 20.9 52 78 1025 1032 2.4
12/01/24 1.3 5.2 0 27.4 62 70 1029 1032 2.7
11/01/24 2.8 6.4 0 25.9 63 78 1022 1029 3.6
10/01/24 -0.2 4.0 0 7.9 54 77 1022 1026 2.2
09/01/24 -5.6 10.7 0 13.0 23 61 1024 1027 0.4
08/01/24 -4.3 9.1 0 28.8 19 57 1017 1024 2.6
07/01/24 1.7 10.6 0 54.7 12 54 1014 1017 6.1
06/01/24 0.1 11.7 0 53.3 18 75 1009 1015 6.3
05/01/24 5.4 9.6 0 16.2 63 77 1005 1013 7.1
04/01/24 3.1 13.0 0 17.6 51 76 1013 1023 6.9
03/01/24 2.2 15.3 0 28.8 49 68 1017 1021 9.3
02/01/24 -2.2 10.7 0 27.4 38 77 1021 1026 3.8
01/01/24 -0.1 12.4 0 16.2 46 73 1022 1026 4.5